QPF
0.00 0.00 0.00 0.00 0.00 0.00 0.00 0.00 0.01 0.00 0.00 0.00 0.00 0.00 0.00 0.00 0.00 0.00 0.00 0.00 0.00 0.00 0.00 0.00 0.00 0.00 0.00 0.00 0.00 0.00 0.00 0.00 0.00 0.00 0.00 0.00 0.00 0.00
0.00 0.00 0.00 0.00 0.00 0.00 0.00 0.00 0.00 0.01 0.00 0.00 0.00 0.00 0.00 0.00 0.00 0.00 0.00 0.00 0.00 0.00 0.00 0.00 0.00 0.00 0.00 0.00 0.00 0.00 0.00 0.00 0.00 0.00 0.00 0.00 0.00 0.00
0.00 0.00 0.00 0.00 0.00 0.00 0.00 0.00 0.00 0.00 0.00 0.00 0.00 0.00 0.00 0.00 0.00 0.00 0.00 0.00 0.00 0.00 0.00 0.00 0.00 0.00 0.00 0.00 0.00 0.00 0.00 0.00 0.00 0.00 0.00 0.00 0.00 0.00
0.00 0.00 0.00 0.00 0.00 0.00 0.00 0.00 0.00 0.00 0.00 0.00 0.00 0.00 0.00 0.00 0.00 0.00 0.00 0.00 0.00 0.00 0.00 0.00 0.00 0.00 0.00 0.00 0.00 0.00 0.00 0.00 0.00 0.00 0.00 0.00 0.00 0.00
0.00 0.00 0.00 0.00 0.00 0.00 0.00 0.00 0.00 0.00 0.00 0.00 0.00 0.00 0.00 0.00 0.00 0.00 0.00 0.00 0.00 0.00 0.00 0.00 0.00 0.00 0.00 0.00 0.00 0.00 0.00 0.00 0.00 0.00 0.00 0.00 0.00 0.00
0.00 0.00 0.00 0.00 0.00 0.00 0.00 0.00 0.00 0.00 0.00 0.00 0.00 0.00 0.00 0.00 0.00 0.00 0.00 0.00 0.00 0.00 0.00 0.00 0.00 0.00 0.00 0.00 0.00 0.00 0.00 0.00 0.00 0.00 0.00 0.00 0.00 0.00
0.00 0.00 0.00 0.00 0.00 0.00 0.00 0.00 0.00 0.00 0.00 0.00 0.00 0.00 0.00 0.00 0.00 0.01 0.01 0.00 0.00 0.00 0.00 0.00 0.00 0.00 0.00 0.00 0.00 0.00 0.00 0.00 0.01 0.01 0.00 0.00 0.00 0.00
0.00 0.00 0.00 0.00 0.00 0.00 0.00 0.00 0.00 0.00 0.00 0.00 0.00 0.00 0.00 0.00 0.01 0.00 0.00 0.00 0.00 0.00 0.00 0.00 0.00 0.00 0.00 0.00 0.00 0.00 0.00 0.00 0.00 0.01 0.01 0.00 0.00 0.00
0.00 0.00 0.00 0.00 0.00 0.00 0.00 0.00 0.00 0.00 0.00 0.00 0.00 0.00 0.00 0.00 0.00 0.00 0.00 0.00 0.00 0.00 0.01 0.00 0.00 0.00 0.00 0.00 0.00 0.00 0.00 0.00 0.00 0.00 0.00 0.00 0.00 0.00
0.00 0.00 0.00 0.00 0.00 0.00 0.00 0.00 0.00 0.00 0.00 0.00 0.00 0.00 0.00 0.00 0.00 0.01 0.01 0.01 0.00 0.00 0.00 0.01 0.00 0.00 0.00 0.00 0.00 0.00 0.00 0.00 0.00 0.00 0.00 0.00 0.00 0.00
0.00 0.00 0.00 0.00 0.00 0.00 0.00 0.00 0.00 0.00 0.00 0.00 0.00 0.00 0.00 0.00 0.00 0.01 0.01 0.02 0.00 0.00 0.00 0.00 0.00 0.00 0.00 0.00 0.00 0.00 0.00 0.00 0.00 0.00 0.00 0.00 0.00 0.00
0.00 0.00 0.00 0.00 0.00 0.00 0.00 0.00 0.00 0.00 0.00 0.00 0.00 0.00 0.00 0.00 0.00 0.00 0.00 0.01 0.01 0.01 0.00 0.00 0.00 0.00 0.02 0.00 0.00 0.00 0.00 0.00 0.00 0.00 0.00 0.00 0.00 0.00
0.00 0.00 0.00 0.00 0.00 0.00 0.00 0.00 0.00 0.00 0.00 0.00 0.00 0.00 0.00 0.00 0.00 0.00 0.00 0.00 0.01 0.01 0.00 0.03 0.05 0.02 0.04 0.01 0.00 0.00 0.00 0.03 0.02 0.00 0.00 0.00 0.00 0.00
0.00 0.00 0.00 0.00 0.00 0.00 0.00 0.00 0.00 0.00 0.00 0.00 0.00 0.00 0.00 0.00 0.00 0.00 0.00 0.00 0.00 0.00 0.00 0.07 0.12 0.05 0.04 0.01 0.00 0.00 0.00 0.08 0.14 0.00 0.00 0.00 0.00 0.00
0.00 0.00 0.00 0.00 0.00 0.00 0.00 0.00 0.00 0.00 0.00 0.00 0.00 0.00 0.00 0.00 0.00 0.00 0.00 0.00 0.00 0.00 0.00 0.01 0.03 0.03 0.03 0.02 0.01 0.00 0.00 0.02 0.04 0.01 0.01 0.00 0.00 0.00
0.00 0.00 0.00 0.00 0.00 0.00 0.00 0.00 0.00 0.00 0.00 0.00 0.00 0.00 0.00 0.00 0.00 0.00 0.00 0.00 0.00 0.00 0.00 0.00 0.00 0.00 0.01 0.01 0.01 0.00 0.00 0.00 0.06 0.03 0.00 0.00 0.00 0.00
0.00 0.01 0.01 0.01 0.00 0.00 0.00 0.00 0.00 0.00 0.00 0.00 0.00 0.00 0.00 0.00 0.00 0.00 0.00 0.00 0.00 0.00 0.00 0.00 0.00 0.00 0.00 0.01 0.00 0.00 0.01 0.00 0.01 0.01 0.00 0.00 0.00 0.00
0.01 0.01 0.00 0.00 0.00 0.00 0.00 0.00 0.00 0.00 0.00 0.00 0.00 0.00 0.00 0.00 0.00 0.00 0.00 0.00 0.00 0.00 0.00 0.00 0.00 0.00 0.00 0.00 0.00 0.01 0.06 0.07 0.04 0.00 0.00 0.02 0.03 0.03
0.03 0.01 0.00 0.00 0.00 0.00 0.00 0.00 0.00 0.00 0.00 0.00 0.00 0.00 0.00 0.00 0.00 0.00 0.00 0.00 0.00 0.00 0.00 0.00 0.00 0.00 0.00 0.00 0.00 0.00 0.02 0.05 0.03 0.00 0.00 0.05 0.06 0.07
0.01 0.00 0.00 0.00 0.00 0.00 0.00 0.00 0.00 0.00 0.00 0.00 0.00 0.00 0.00 0.00 0.00 0.00 0.00 0.00 0.00 0.00 0.00 0.00 0.00 0.00 0.01 0.01 0.01 0.00 0.00 0.00 0.01 0.01 0.02 0.02 0.02 0.02
0.00 0.01 0.00 0.00 0.00 0.00 0.00 0.00 0.00 0.00 0.00 0.00 0.00 0.00 0.00 0.00 0.00 0.00 0.00 0.00 0.00 0.00 0.00 0.00 0.00 0.01 0.01 0.01 0.01 0.00 0.00 0.00 0.00 0.00 0.01 0.02 0.02 0.00
0.00 0.01 0.00 0.00 0.00 0.00 0.00 0.00 0.00 0.00 0.00 0.00 0.00 0.00 0.00 0.00 0.00 0.00 0.00 0.00 0.00 0.00 0.00 0.00 0.00 0.01 0.03 0.02 0.01 0.00 0.00 0.00 0.00 0.00 0.00 0.02 0.03 0.01
0.03 0.02 0.01 0.01 0.00 0.00 0.00 0.00 0.00 0.00 0.00 0.00 0.00 0.00 0.00 0.00 0.00 0.00 0.00 0.00 0.00 0.00 0.00 0.00 0.00 0.00 0.00 0.01 0.02 0.00 0.00 0.00 0.00 0.00 0.00 0.00 0.01 0.01
MSLP
1025.61 1025.58 1025.47 1025.20 1025.01 1024.81 1025.05 1025.29 1025.84 1026.17 1025.74 1025.30 1025.21 1024.98 1024.82 1024.40 1024.23 1023.85 1023.65 1023.25 1022.85 1022.65 1022.43 1022.18 1021.89 1021.50 1021.09 1020.65 1020.31 1020.11 1019.99 1019.75 1019.47 1019.11 1018.70 1018.57 1018.64 1018.60
1025.43 1025.41 1025.27 1025.15 1025.18 1024.96 1025.10 1025.51 1025.59 1025.94 1026.10 1025.60 1025.36 1025.10 1024.87 1024.59 1024.21 1023.93 1023.57 1023.02 1022.71 1022.27 1021.89 1021.55 1021.24 1020.92 1020.52 1020.16 1019.88 1019.54 1019.29 1019.03 1018.73 1018.45 1018.12 1018.06 1017.91 1017.81
1025.36 1025.35 1025.21 1025.05 1025.01 1024.94 1025.00 1025.24 1025.82 1025.70 1025.94 1025.48 1025.17 1024.93 1024.78 1024.66 1024.18 1023.72 1023.24 1022.82 1022.28 1021.84 1021.45 1021.02 1020.66 1020.34 1019.96 1019.60 1019.31 1018.97 1018.67 1018.37 1018.13 1017.79 1017.71 1017.40 1017.29 1017.18
1024.97 1025.01 1024.99 1024.84 1024.90 1024.92 1025.08 1025.36 1025.53 1025.57 1025.72 1025.58 1025.18 1024.91 1024.65 1024.32 1024.02 1023.63 1022.86 1022.31 1021.99 1021.49 1020.96 1020.60 1020.25 1019.87 1019.45 1019.12 1018.74 1018.31 1018.00 1017.71 1017.54 1017.37 1017.15 1017.08 1016.88 1016.59
1024.57 1024.70 1024.66 1024.58 1024.69 1024.77 1024.94 1025.21 1025.34 1025.31 1025.46 1025.51 1025.09 1024.74 1024.40 1024.10 1023.66 1023.15 1022.62 1022.12 1021.63 1021.10 1020.78 1020.29 1019.78 1019.29 1018.86 1018.44 1018.03 1017.69 1017.30 1016.93 1016.71 1016.55 1016.45 1016.40 1016.29 1016.04
1024.45 1024.50 1024.38 1024.27 1024.19 1024.34 1024.65 1024.94 1025.04 1025.20 1025.27 1025.24 1025.01 1024.66 1024.36 1023.84 1023.54 1023.01 1022.37 1022.05 1021.57 1020.88 1020.31 1019.74 1019.22 1018.77 1018.25 1017.78 1017.35 1016.95 1016.53 1016.13 1015.86 1015.61 1015.48 1015.38 1015.32 1015.28
1024.26 1024.23 1024.08 1023.92 1023.55 1023.89 1024.25 1024.61 1024.77 1024.95 1025.02 1024.97 1024.71 1024.37 1023.98 1023.62 1023.35 1022.79 1022.40 1021.79 1021.21 1020.57 1019.84 1019.26 1018.97 1018.28 1017.79 1017.22 1016.65 1016.12 1015.72 1015.38 1015.08 1014.82 1014.62 1014.47 1014.27 1014.22
1024.13 1024.07 1023.93 1023.61 1023.42 1023.62 1023.86 1024.07 1024.31 1024.56 1024.73 1024.70 1024.45 1024.17 1023.71 1023.45 1023.02 1022.66 1022.09 1021.50 1020.66 1019.95 1019.61 1018.64 1018.61 1017.72 1017.14 1016.58 1015.92 1015.41 1014.99 1014.63 1014.33 1014.05 1013.85 1013.67 1013.25 1013.39
1023.87 1023.83 1023.64 1023.54 1023.64 1023.79 1023.78 1023.92 1024.17 1024.16 1024.14 1024.15 1023.99 1023.81 1023.45 1023.21 1022.72 1022.10 1021.60 1021.20 1020.49 1019.65 1019.38 1018.41 1017.78 1017.06 1016.28 1015.58 1014.95 1014.41 1013.99 1013.72 1013.46 1013.26 1013.08 1012.95 1012.83 1012.85
1023.60 1023.58 1023.53 1023.50 1023.60 1023.66 1023.76 1023.91 1023.89 1023.84 1023.74 1023.55 1023.46 1023.23 1023.03 1022.51 1022.18 1021.58 1020.97 1020.44 1019.81 1019.18 1018.82 1018.01 1016.99 1016.43 1015.56 1014.91 1013.99 1013.55 1013.13 1012.87 1012.69 1012.53 1012.35 1012.19 1012.10 1012.06
1023.16 1023.22 1023.20 1023.13 1023.21 1023.19 1023.47 1023.62 1023.52 1023.36 1023.15 1022.97 1022.81 1022.54 1022.18 1021.79 1021.39 1021.00 1020.70 1020.26 1019.42 1018.87 1018.19 1017.85 1016.70 1015.96 1015.10 1014.13 1013.34 1012.84 1012.46 1012.14 1011.98 1011.83 1011.61 1011.29 1011.29 1011.33
1022.74 1022.75 1022.62 1022.71 1022.79 1022.91 1023.05 1023.26 1023.25 1023.02 1022.91 1022.73 1022.57 1022.23 1021.91 1021.62 1021.13 1020.89 1020.56 1020.11 1019.40 1018.37 1017.62 1017.49 1016.38 1015.96 1014.63 1013.46 1012.87 1012.46 1012.17 1011.78 1011.20 1010.73 1010.46 1010.33 1010.45 1010.81
1022.33 1022.18 1022.13 1022.12 1022.23 1022.30 1022.30 1022.55 1022.69 1022.47 1022.43 1022.40 1022.21 1021.96 1021.70 1021.39 1020.96 1020.47 1020.09 1019.86 1019.19 1018.36 1017.40 1017.13 1015.84 1015.02 1014.54 1013.65 1012.75 1012.13 1011.72 1011.05 1010.51 1009.83 1009.50 1009.47 1009.75 1010.20
1021.57 1021.40 1021.45 1021.60 1021.69 1021.78 1021.81 1021.82 1021.86 1021.87 1021.89 1022.03 1021.97 1021.63 1021.38 1021.00 1020.57 1020.04 1019.47 1018.97 1018.48 1017.91 1016.93 1016.62 1015.74 1014.64 1013.80 1013.25 1012.70 1011.72 1011.28 1010.53 1009.74 1009.78 1009.67 1009.42 1009.54 1009.75
1020.69 1020.61 1020.79 1021.01 1021.11 1021.18 1021.21 1021.21 1021.21 1021.24 1021.42 1021.70 1021.58 1021.28 1020.93 1020.45 1020.03 1019.58 1019.00 1018.38 1017.73 1017.09 1016.35 1015.84 1015.37 1014.61 1013.83 1012.99 1012.43 1011.88 1011.39 1010.35 1009.98 1009.83 1009.80 1009.75 1009.80 1010.00
1019.88 1020.02 1020.17 1020.36 1020.51 1020.63 1020.70 1020.65 1020.57 1020.63 1020.86 1020.95 1020.97 1020.70 1020.51 1020.20 1019.89 1019.49 1018.99 1018.29 1017.59 1016.82 1015.97 1015.34 1014.80 1014.27 1013.47 1012.78 1012.47 1011.85 1011.31 1010.97 1010.18 1010.02 1009.87 1009.83 1009.80 1009.81
1019.29 1019.63 1019.78 1019.85 1020.03 1020.15 1020.18 1020.07 1019.97 1020.00 1020.31 1020.29 1020.55 1020.71 1020.42 1020.06 1019.76 1019.33 1018.91 1018.36 1017.84 1017.04 1016.09 1015.17 1014.38 1013.81 1013.26 1012.87 1012.33 1011.87 1011.02 1010.36 1010.16 1010.07 1010.04 1010.15 1009.87 1009.82
1018.71 1018.91 1019.04 1019.21 1019.44 1019.54 1019.54 1019.45 1019.38 1019.42 1019.49 1019.73 1020.00 1020.17 1020.23 1020.05 1019.73 1019.31 1018.90 1018.49 1017.95 1017.18 1016.48 1015.60 1014.73 1014.01 1013.43 1012.86 1012.49 1012.09 1011.39 1010.82 1010.55 1010.34 1010.24 1010.23 1010.06 1009.83
1017.61 1017.90 1018.17 1018.41 1018.53 1018.63 1018.66 1018.70 1018.73 1018.58 1018.65 1019.05 1019.37 1019.70 1019.90 1019.94 1019.69 1019.37 1018.99 1018.54 1017.95 1017.25 1016.52 1015.85 1015.21 1014.75 1014.15 1013.67 1012.74 1012.32 1012.08 1011.54 1011.21 1011.01 1010.83 1010.59 1010.52 1010.47
1016.63 1016.79 1016.99 1017.33 1017.52 1017.64 1017.69 1017.78 1017.82 1017.99 1018.30 1018.60 1019.02 1019.36 1019.76 1019.88 1019.66 1019.36 1019.04 1018.66 1018.05 1017.28 1016.49 1015.87 1015.36 1014.92 1014.63 1014.00 1013.41 1012.75 1012.34 1012.09 1011.86 1011.68 1011.48 1011.25 1011.16 1010.98
1015.50 1015.67 1015.77 1015.99 1016.30 1016.52 1016.59 1016.75 1016.93 1017.33 1017.66 1018.26 1018.57 1019.01 1019.21 1019.53 1019.50 1019.26 1018.97 1018.52 1018.03 1017.34 1016.66 1015.93 1015.16 1014.54 1013.93 1013.61 1013.42 1013.10 1012.95 1012.49 1012.23 1012.09 1011.88 1011.71 1011.57 1011.47
1014.41 1014.50 1014.62 1014.82 1015.05 1015.33 1015.53 1015.74 1016.12 1016.57 1017.03 1017.57 1017.95 1018.32 1018.46 1018.74 1019.20 1019.09 1018.86 1018.61 1018.07 1017.52 1016.86 1015.94 1014.96 1014.06 1013.25 1013.03 1012.90 1013.12 1013.16 1013.08 1012.68 1012.46 1012.28 1012.08 1011.97 1011.90
1013.48 1013.44 1013.57 1013.73 1013.91 1014.13 1014.37 1014.64 1014.97 1015.34 1015.80 1016.32 1016.89 1017.45 1017.91 1018.68 1018.48 1018.62 1018.80 1018.47 1018.08 1017.63 1017.07 1016.26 1015.34 1014.42 1013.86 1013.47 1013.22 1013.34 1013.38 1013.31 1013.21 1012.98 1012.94 1012.60 1012.29 1012.12
Thickness
5401 5392 5383 5375 5365 5356 5341 5326 5309 5297 5300 5291 5279 5272 5265 5263 5261 5262 5261 5261 5261 5259 5257 5257 5258 5261 5263 5267 5272 5276 5279 5284 5291 5301 5313 5328 5343 5359
5384 5374 5365 5355 5342 5332 5319 5301 5289 5276 5271 5270 5263 5257 5254 5251 5250 5249 5249 5248 5247 5247 5246 5246 5247 5249 5251 5254 5257 5263 5267 5271 5278 5286 5294 5304 5318 5334
5364 5354 5345 5334 5322 5310 5297 5283 5267 5260 5252 5253 5250 5248 5245 5242 5240 5238 5238 5237 5238 5237 5236 5236 5237 5237 5240 5243 5246 5250 5255 5260 5266 5274 5280 5287 5298 5312
5348 5336 5325 5315 5300 5288 5275 5263 5253 5245 5239 5239 5240 5237 5235 5232 5229 5229 5229 5227 5227 5226 5226 5225 5225 5226 5229 5232 5235 5240 5244 5249 5254 5260 5266 5275 5280 5294
5332 5318 5307 5294 5281 5269 5258 5248 5241 5236 5230 5227 5230 5227 5224 5221 5220 5219 5218 5218 5216 5214 5214 5215 5216 5219 5221 5223 5226 5230 5235 5239 5244 5250 5255 5261 5269 5280
5312 5299 5289 5277 5267 5258 5247 5237 5232 5227 5223 5220 5219 5217 5212 5211 5208 5208 5210 5206 5204 5205 5207 5209 5211 5213 5214 5216 5218 5221 5225 5230 5234 5239 5245 5253 5261 5267
5294 5284 5274 5267 5260 5249 5237 5228 5224 5220 5217 5215 5213 5210 5207 5204 5200 5199 5197 5198 5199 5198 5203 5205 5203 5205 5206 5207 5209 5212 5215 5219 5223 5228 5235 5242 5251 5258
5278 5267 5259 5254 5247 5237 5229 5223 5218 5214 5210 5207 5205 5201 5200 5195 5193 5189 5189 5191 5196 5193 5196 5198 5194 5198 5198 5198 5200 5202 5205 5209 5212 5218 5225 5232 5241 5248
5264 5255 5249 5242 5234 5226 5221 5216 5211 5208 5206 5202 5198 5194 5192 5187 5186 5185 5183 5184 5186 5188 5189 5191 5188 5189 5190 5192 5193 5195 5197 5200 5204 5208 5214 5221 5229 5237
5253 5245 5238 5231 5224 5217 5212 5208 5205 5202 5200 5197 5193 5190 5186 5184 5180 5180 5180 5181 5183 5182 5182 5184 5183 5184 5185 5186 5188 5189 5190 5192 5195 5199 5205 5213 5221 5229
5244 5236 5230 5224 5218 5212 5206 5202 5200 5198 5196 5192 5189 5186 5182 5179 5177 5176 5174 5175 5177 5176 5177 5174 5176 5179 5180 5182 5184 5184 5185 5187 5190 5193 5199 5207 5215 5224
5236 5229 5223 5218 5212 5207 5201 5196 5193 5194 5191 5188 5185 5182 5178 5174 5171 5169 5169 5169 5170 5173 5174 5169 5172 5170 5177 5178 5181 5182 5181 5182 5188 5193 5200 5207 5213 5220
5229 5223 5218 5213 5208 5203 5199 5194 5191 5191 5189 5186 5184 5180 5175 5170 5167 5166 5165 5164 5165 5166 5168 5166 5171 5172 5172 5176 5178 5182 5184 5187 5190 5197 5202 5207 5212 5217
5224 5219 5214 5210 5205 5200 5196 5194 5192 5190 5186 5182 5179 5177 5173 5168 5165 5163 5164 5165 5165 5164 5165 5163 5166 5171 5174 5175 5177 5184 5187 5192 5196 5196 5201 5205 5210 5215
5220 5216 5210 5205 5202 5198 5194 5192 5190 5187 5183 5175 5175 5173 5170 5168 5165 5162 5162 5164 5165 5166 5166 5166 5166 5168 5170 5176 5180 5182 5186 5194 5195 5196 5198 5201 5206 5211
5216 5211 5205 5200 5197 5194 5190 5188 5186 5183 5180 5177 5173 5171 5169 5165 5161 5159 5158 5160 5162 5163 5165 5166 5167 5168 5171 5176 5177 5183 5186 5188 5195 5194 5194 5197 5203 5209
5211 5204 5198 5195 5192 5189 5187 5185 5183 5181 5177 5174 5170 5167 5165 5162 5159 5156 5154 5155 5156 5158 5161 5164 5167 5169 5170 5172 5176 5179 5188 5194 5193 5193 5193 5193 5201 5209
5204 5196 5192 5188 5186 5185 5183 5182 5181 5179 5176 5172 5167 5164 5161 5158 5155 5153 5151 5150 5152 5154 5154 5158 5161 5165 5167 5170 5171 5176 5182 5188 5189 5190 5192 5197 5203 5210
5201 5195 5190 5185 5183 5183 5182 5180 5179 5178 5175 5171 5167 5162 5158 5156 5152 5150 5148 5147 5149 5151 5152 5154 5156 5158 5163 5151 5170 5173 5175 5181 5182 5184 5188 5194 5199 5204
5195 5192 5189 5183 5181 5181 5181 5179 5178 5174 5170 5167 5162 5157 5151 5150 5148 5147 5145 5139 5145 5149 5152 5153 5153 5155 5157 5163 5166 5169 5173 5174 5177 5179 5183 5187 5192 5198
5191 5189 5187 5185 5182 5180 5180 5178 5176 5172 5168 5162 5159 5154 5149 5149 5145 5144 5141 5140 5139 5148 5149 5151 5154 5157 5161 5164 5164 5166 5168 5171 5174 5175 5179 5183 5188 5192
5188 5186 5184 5182 5181 5180 5178 5177 5173 5168 5164 5160 5156 5152 5148 5146 5142 5139 5137 5136 5140 5141 5146 5150 5156 5161 5166 5170 5172 5165 5165 5167 5170 5172 5175 5179 5183 5187
5184 5183 5182 5180 5180 5179 5178 5176 5173 5170 5166 5163 5158 5153 5146 5143 5142 5139 5136 5138 5138 5137 5141 5146 5152 5158 5163 5166 5167 5164 5162 5164 5166 5168 5170 5174 5178 5183